Regional Weather Roundup
Issued by NWS

Home | Current Version | Previous Version | Graphics & Text | Print | Product List | Glossary On
Versions: 1 2 3 4 5 6 7 8 9 10 11 12 13 14 15 16 17 18 19 20 21 22 23 24 25 26 27 28 29 30 31 32 33 34 35 36 37 38 39 40 41 42 43 44 45 46 47 48 49 50
000
ASUS43 KLOT 040808
RWRIL

ILLINOIS REGIONAL WEATHER ROUNDUP
NATIONAL WEATHER SERVICE CHICAGO/ROMEOVILLE IL
300 AM CDT MON MAY 04 2015

NOTE: "FAIR" INDICATES FEW OR NO CLOUDS BELOW 12,000 FEET WITH NO
SIGNIFICANT WEATHER AND/OR OBSTRUCTIONS TO VISIBILITY.

* THESE STATIONS ARE NOT UNDER NWS QUALITY CONTROL. THEY ALSO MAY NOT
  REPORT WEATHER SUCH AS PRECIPITATION OR FOG.

ILZ001-002-007-009-015-016-024-040900-
NORTHWEST ILLINOIS

CITY           SKY/WX    TMP DP  RH WIND       PRES   REMARKS
MOLINE         LGT RAIN  61  57  87 NE9       29.96F
STERLING*      CLOUDY    61  55  82 NE5       29.96F
SAVANNA*       LGT RAIN  59  56  89 CALM      29.92S
$$

ILZ003-004-008-010-011-017-018-040900-
NORTH CENTRAL ILLINOIS

CITY           SKY/WX    TMP DP  RH WIND       PRES   REMARKS
ROCKFORD       RAIN      60  56  86 SE8       29.95F
FREEPORT*      CLOUDY    58  55  91 SE12      29.91F
ROCHELLE*      LGT RAIN  60  56  85 N9        29.97S
DE KALB*       CLOUDY    60  54  79 NW9       29.97R
PERU*          CLOUDY    63  55  74 N8        29.98F
$$

ILZ005-006-012>014-019>023-040900-
NORTHEAST ILLINOIS

CITY           SKY/WX    TMP DP  RH WIND       PRES   REMARKS
CHICAGO-OHARE  CLOUDY    65  48  54 W17G24    29.93R
CHICAGO-MIDWAY CLOUDY    68  48  48 SW12      29.91F
AURORA         CLOUDY    62  54  74 W12       29.96R
LANSING*       MOCLDY    64  43  46 SW10      29.94S
JOLIET*        CLOUDY    68  49  50 W10G16    29.97R
WAUKEGAN       CLOUDY    65  52  62 SW9       29.90R
DUPAGE AIRPORT CLOUDY    64  51  62 W14       29.94R
KANKAKEE*      MOCLDY    65  47  53 S15       29.96S
WHEELING       LGT RAIN  65  50  58 W12G21    29.94R
MORRIS*        CLOUDY    68  49  50 W15       29.95R
ROMEOVILLE*    RAIN      65  48  53 W18G24    29.96R
NORTHERLY ISL    N/A     68  45  43 SW12        N/A
$$

LMZ740>746-040900-
SOUTHERN LAKE MICHIGAN

STATION/POSITION SKY/WX   TEMP    WIND        PRES    VSBY  WAVE
                          AIR SEA DIR/SP/G                  HT/PER
                          (F)     (DEG/KT/KT) (MB)    (MI)  (FT/S)
HARRISON CRIB              68     210/ 25/ 29   N/A
BURNHAM HARBOR             68     210/  8/ 14   N/A
CALUMET HARBOR             69     200/ 11/ 16   N/A
BURNS HARBOR               66     180/ 13/ 17 1014.2F
MICHIGAN CITY              67     150/ 15/ 18   N/A
MICHIGAN CITY 6N           62 50  210/ 14/ 17   N/A           1/ 2
ST. JOSEPH                 60 48  230/ 14/ 16   N/A           3/ 3
$$

ILZ025>027-034>036-040-047-049-050-058-095>099-040900-
WEST-CENTRAL ILLINOIS

CITY           SKY/WX    TMP DP  RH WIND       PRES   REMARKS
QUINCY         CLOUDY    67  54  63 S10       29.94F
GALESBURG*     CLOUDY    63  55  73 NE15G23   29.96F
MACOMB*        TSTM      69  57  66 SW16G24   29.94F
JACKSONVILLE*  CLOUDY    70  54  56 S6        29.96S
PITTSFIELD*    CLOUDY    70  54  56 S9        29.96F
$$

ILZ028>032-037-038-041>044-048-051>054-059>061-040900-
CENTRAL ILLINOIS

CITY           SKY/WX    TMP DP  RH WIND       PRES   REMARKS
PONTIAC        CLOUDY    68  49  50 S16       29.95F
BLOOMINGTON    CLOUDY    67  51  56 SW16      29.98F
DECATUR        CLOUDY    67  50  54 S15       30.00S
PEORIA         CLOUDY    67  51  56 S6        29.94F
LACON*         RAIN      67  53  60 N7        29.97R
LINCOLN*       CLOUDY    67  51  56 S10       29.95F
SPRINGFIELD    MOCLDY    68  52  56 S15       29.96F
TAYLORVILLE    CLOUDY    64  50  59 S15G21    29.99S
$$

ILZ033-039-045-046-055>057-062-063-040900-
EAST-CENTRAL ILLINOIS

CITY           SKY/WX    TMP DP  RH WIND       PRES   REMARKS
CHAMPAIGN      CLOUDY    65  48  54 S16       30.01S
DANVILLE*      PTCLDY    64  47  54 SW15      29.99S
RANTOUL*       CLOUDY    65  50  58 S10       30.00S
MATTOON        CLOUDY    65  46  50 S12       30.02F
PARIS*         PTCLDY    64  49  57 S13       30.04F
$$

ILZ079-100>102-040900-
SOUTHWEST ILLINOIS

CITY           SKY/WX    TMP DP  RH WIND       PRES   REMARKS
ALTON          CLOUDY    67  49  51 S8        30.00F
BELLEVILLE     CLOUDY    64  53  68 SE3       30.01S
CAHOKIA*       CLOUDY    65  53  65 SE7       30.00F
SPARTA*        MOCLDY    65  49  56 S7        30.05S
$$

ILZ064>066-069>071-074>076-080>082-084>086-088>090-092>094-040900-
SOUTH-CENTRAL ILLINOIS

CITY           SKY/WX    TMP DP  RH WIND       PRES   REMARKS
CARBONDALE     MOCLDY    60  52  74 CALM      30.06R
CAIRO*         PTCLDY    66  51  59 S6        30.07R
EFFINGHAM*     DRIZZLE   64  44  48 SE6       30.06S
MARION         MOCLDY    64  50  59 CALM      30.07S
MT. VERNON     CLOUDY   N/A N/A N/A S5        30.06S
CENTRALIA*     MOCLDY    64  46  52 S10       30.04S
SALEM*         MOCLDY    69  46  43 S9        30.05S
METROPOLIS*    PTCLDY    65  51  59 S3        30.07R
$$

ILZ067-068-072-073-078-083-087-091-040900-
SOUTHEAST ILLINOIS

CITY           SKY/WX    TMP DP  RH WIND       PRES   REMARKS
LAWRENCEVILLE  PTCLDY    59  50  72 CALM      30.07R
FLORA*         PTCLDY    63  48  58 S7        30.05F
FAIRFIELD*     CLOUDY    64  50  59 S5        30.06R
HARRISBURG*    MOCLDY    60  53  77 CALM      30.08S
ROBINSON*      CLEAR     58  49  72 S7        30.07R
CARMI*         MOCLDY    60  49  66 S6        30.07R
$$

ABBREVIATIONS USED IN REMARKS
   TC - TEMPERATURE IN CELSIUS
  WCI - WIND CHILL INDEX
   HX - HEAT INDEX
  VSB - VISIBILITY
$$




USA.gov is the U.S. government's official web portal to all federal, state and local government web resources and services.